User: anonymous   Login
Location: Unspecified
(0.0000°N, 0.0000°E)
Time: 21:40:38
(UTC+00:00)
Language:

DOVE 4 - Orbit

View from above orbital plane
View from above orbital plane
View from above satellite
View from above satellite

Ground track
Ground track

The orbit data is extracted from the following two-line orbital elements,

1 39430U 13066Q   18048.90805516  .00000282  00000-0  60334-4 0  9992
2 39430  97.6856  34.4591 0151430 347.6516  12.0990 14.59024589225764
Epoch (UTC): 17 February 2018 21:47:35
Eccentricity: 0.0151430
inclination: 97.6856°
perigee height: 589 km
apogee height: 803 km
right ascension of ascending node: 34.4591°
argument of perigee: 347.6516°
revolutions per day: 14.59024589
mean anomaly at epoch: 12.0990°
orbit number at epoch: 22576

The dashed part of the orbit path shows where the satellite is in the earth's shadow,  

DLR